Preview of NWS' New Version of Forecast
This preview is not operational and should not be used for support decisions.
Latest weather observations around

Concord, Buchanan Field (KCCR)

Using English Units (Switch to International System of Units)
Date/ Time (PDT) Wind (mph) Vis. (mi) Weather Sky Cond. Temp (°F) Rel. Humidity Wind Chill (°F) Heat Index (°F) Pressure Precip. (in)
Air Dwpt 6 hour Altimeter (inHg) Sea level (inHg) 1 hr 3 hr 6 hr
Max Min
Aug 25 21:53 WNW 5 10 Clear CLR 77 47     35%   76 29.93        
Aug 25 20:53 NW 7 10 Clear CLR 78 51     39%   77 29.92        
Aug 25 19:53 W 6 10 Clear CLR 87 47     25%   84 29.9        
Aug 25 18:53 W 8 10 Clear CLR 91 48     23%   88 29.9        
Aug 25 17:53 W 9 10 Clear CLR 94 51     23%   91 29.9        
Aug 25 16:53 W 11 10 Clear CLR 95 49     21%   92 29.9        
Aug 25 15:53 WNW 10 10 Clear CLR 95 54     25%   93 29.92        
Aug 25 14:53 W 13 10 Clear CLR 93 55     28%   91 29.93        
Aug 25 13:53   10 Clear CLR 93 51     24%   90 29.93        
Aug 25 12:53 NW 14 10 Clear CLR 90 55     31%   88 29.94        
Aug 25 11:53 N 8 10 Clear CLR 85 58     40%   84 29.96        
Aug 25 10:53 7 10 Clear CLR 80 59     49%   81 29.98        
Aug 25 09:53 NNW 6 10 Clear CLR 75 59     57%   75 29.98        
Aug 25 08:53 WNW 3 10 Clear CLR 71 57     61%   71 29.99        
Aug 25 07:53 Calm 10 Clear CLR 67 57     71%     29.98        
Aug 25 06:53 NW 3 10 Clear CLR 64 56     75%     29.97        
Aug 25 05:53 Calm 10 Clear CLR 64 56     75%     29.96        
Aug 25 04:53 Calm 10 Clear CLR 64 57     78%     29.95        
Aug 25 03:53 NNW 5 10 Clear CLR 64 56     75%     29.95        
Aug 25 02:53 Calm 10 Clear CLR 67 57     71%     29.95        
Aug 25 01:53 NW 7 10 Clear CLR 68 57     68%     29.95        
Aug 25 00:53 NW 6 10 Clear CLR 69 56     63%     29.94        
Aug 24 23:53 NW 6 10 Clear CLR 71 55     57%   71 29.94        
Aug 24 22:53 N 7 10 Clear CLR 72 53     51%   71 29.94        
Aug 24 21:53 W 8 10 Clear CLR 76 51     42%   75 29.93        
Aug 24 20:53 W 7 10 Clear CLR 78 50     37%   77 29.91        
Aug 24 19:53 WSW 7 10 Clear CLR 81 48     32%   80 29.9        
Aug 24 18:53 SW 10 10 Clear CLR 84 47     27%   82 29.9        
Aug 24 17:53 WSW 14 10 Clear CLR 87 45     23%   84 29.9        
Aug 24 16:53 WSW 13 10 Clear CLR 89 47     23%   86 29.89        
Aug 24 15:53 W 11 10 Clear CLR 91 49     24%   88 29.9        
Aug 24 14:53 WNW 16 10 Clear CLR 90 52     27%   87 29.9        
Aug 24 13:53 WNW 14 10 Clear CLR 88 56     34%   86 29.91        
Aug 24 12:53 WNW 14 10 Clear CLR 86 56     36%   85 29.91        
Aug 24 11:53 NW 15 10 Clear CLR 81 56     42%   81 29.92        
Aug 24 10:53 NW 10 10 Clear CLR 76 57     52%   76 29.93        
Aug 24 09:53 WNW 10 10 Clear CLR 71 57     61%   71 29.92        
Aug 24 08:53 WNW 9 10 Clear CLR 67 56     68%     29.92        
Aug 24 07:53 W 11 10 Clear CLR 64 56     75%     29.91        
Aug 24 06:53 Calm 10 Clear CLR 62 56     80%     29.89        
Aug 24 05:53 W 10 10 Clear CLR 62 56     80%     29.87        
Aug 24 04:53 W 8 10 Clear CLR 62 56     80%     29.87        
Aug 24 03:53 WNW 11 10 Clear CLR 63 56     78%     29.85        
Aug 24 02:53 WNW 6 10 Clear CLR 63 56     78%     29.84        
Aug 24 01:53 WNW 7 10 Clear CLR 64 56     75%     29.84        
Aug 24 00:53 WNW 9 10 Clear CLR 64 56     75%     29.84        
Aug 23 23:53 WNW 7 10 Clear CLR 64 55     73%     29.83        
Aug 23 22:53 W 8 10 Clear CLR 65 56     73%     29.83        
Aug 23 21:53 W 7 10 Clear CLR 66 56     70%     29.83        
Aug 23 20:53 WSW 8 10 Clear CLR 70 56     61%     29.8        
Aug 23 19:53 WSW 9 10 Clear CLR 73 56     55%   73 29.79        
Aug 23 18:53 3 10 Clear CLR 78 57     48%   78 29.76        
Aug 23 17:53 SW 7 10 Clear CLR 79 56     45%   79 29.76        
Aug 23 16:53 WSW 15 10 Clear CLR 83 57     41%   82 29.76        
Aug 23 15:53 W 11 10 Clear CLR 90 58     34%   89 29.75        
Aug 23 14:53 W 13 10 Clear CLR 90 58     34%   89 29.75        
Aug 23 13:53 WNW 11 10 Clear CLR 88 58     36%   87 29.76        
Aug 23 12:53 NW 11 10 Clear CLR 87 59     39%   86 29.77        
Aug 23 11:53 NW 11 10 Clear CLR 84 59     43%   84 29.78        
Aug 23 10:53 NW 8 10 Clear   80 59     49%   81 29.78        
Aug 23 09:53     Clear   76 59     56%   76 29.78        
Aug 23 08:53 Calm 10 Clear CLR 72 58     61%   72 29.77        
Aug 23 07:53 Calm 8 Clear CLR 67 58     73%     29.76        
Aug 23 06:53 Calm 6 Haze CLR 64 58     81%     29.75        
Aug 23 05:53 WNW 5 8 Clear CLR 64 57     78%     29.73        
Aug 23 04:53 NNW 5 8 Clear CLR 64 58     81%     29.71        
Aug 23 03:53 N 3 9 Clear CLR 65 58     78%     29.71        
Aug 23 02:53 Calm 9 Clear CLR 65 58     78%     29.71        
Aug 23 01:53 NNW 5 9 Clear CLR 67 57     71%     29.71        
Aug 23 00:53 NNW 5 10 Clear CLR 68 57     68%     29.71        
Aug 22 23:53 SW 6 10 Clear CLR 74 54     50%   73 29.71        
Aug 22 22:53 Calm 10 Clear CLR 73 57     57%   73 29.71        
Aug 22 21:53 S 6 10 Clear CLR 80 52     38%   80 29.71        
Aug 22 20:53 S 7 10 Clear CLR 82 52     35%   81 29.7        
May 15 01:49 W 6 10 Mostly Cloudy BKN020 55 48     77%     29.99        
May 14 19:53 SW 15 10 Clear CLR 59 48     67%     29.96        
May 14 17:53 W 18 10 Clear CLR 64 48     56%     29.94        
May 14 15:53   10 Clear CLR 66 48     52%     29.96        
May 14 14:53 WSW 20 10 Mostly Clear and Windy FEW026 66 49     54%     29.98        
May 14 04:53 WSW 10 10 Cloudy OVC016 55 47     74%     29.99        
May 12 13:53   10 Clear   79 47     32%   78 29.84        
May 11 18:53   10 Clear CLR 83 32     16%   80 29.73        
Jun 12 06:53 SSW 8 10 Clear CLR 56 49     77%     30.05        
Jun 11 17:53   10 Mostly Cloudy SCT046 BKN085 65 44     47%     29.94        
Jun 11 16:53 W 17 10 Clear CLR 69 43     39%     29.91        
Jun 10 19:53 WNW 16 10 Mostly Clear FEW037 64 47     54%     29.92        
Jun 10 13:53 WNW 16 10 Partly Cloudy SCT040 73 43     34%   72 29.94        
Jun 10 07:53   10 Clear CLR 60 44     55%     29.95        
Jun 09 20:53 SW 11 10 Clear CLR 61 45     56%     29.95        
Jun 09 09:06 W 10 10 Cloudy BKN019 OVC029 63 57     81%     29.94        
Jun 09 04:53 SSW 3 10 Cloudy OVC029 62 57     84%     29.94       0
Jun 09 01:53 WSW 8 10 Cloudy FEW011 OVC025 62 58     86%     29.96     0  
Jun 08 20:53 WNW 5 10 Cloudy OVC035 64 59     84%     29.98        
Jun 08 10:00 SSW 9 10 Cloudy OVC029 63 47     56%     30.01        
Jun 07 06:53   10 Mostly Clear FEW012 56 51     84%     29.89